FW7418 Weather Reports


time (UTC)temp
C
wind
direction
speed
KPH
gust
KPH
rain 1hr
cm
rain 24hr
cm
rain mn
cm
humidity
%
barometer
mb
20260508220408 16 323 0.0 0.0 0.00 0.00 0.00 65 1013.2
20260508215904 17 323 0.0 0.0 0.00 0.00 0.00 65 1013.4
20260508215402 17 323 0.0 0.0 0.00 0.00 0.00 64 1013.3
20260508214858 17 322 0.0 0.0 0.00 0.00 0.00 63 1013.3
20260508214355 17 321 0.0 0.0 0.00 0.00 0.00 64 1013.3
20260508213851 17 315 0.0 0.0 0.00 0.00 0.00 60 1013.4
20260508213349 17 323 0.0 0.0 0.00 0.00 0.00 61 1013.1
20260508212844 18 313 0.0 0.0 0.00 0.00 0.00 60 1013.2
20260508212341 18 287 1.6 1.6 0.00 0.00 0.00 56 1013.4
20260508211837 18 283 1.6 3.2 0.00 0.00 0.00 56 1013.3
20260508211333 18 277 1.6 1.6 0.00 0.00 0.00 54 1013.2
20260508210830 18 320 0.0 0.0 0.00 0.00 0.00 62 1013.4
20260508210326 18 275 0.0 0.0 0.00 0.00 0.00 53 1013.3
20260508205818 18 294 1.6 3.2 0.00 0.00 0.00 56 1013.5
20260508205314 18 299 0.0 1.6 0.00 0.00 0.00 55 1013.5
20260508204811 18 299 1.6 1.6 0.00 0.00 0.00 57 1013.7
20260508204308 18 282 1.6 1.6 0.00 0.00 0.00 54 1013.9
20260508203804 18 272 1.6 3.2 0.00 0.00 0.00 54 1013.9
20260508203300 18 287 3.2 4.8 0.00 0.00 0.00 53 1013.8
20260508202755 18 299 1.6 3.2 0.00 0.00 0.00 55 1013.9
20260508202253 18 259 3.2 3.2 0.00 0.00 0.00 54 1014.0
20260508201750 18 281 3.2 3.2 0.00 0.00 0.00 55 1014.2
20260508201247 18 281 3.2 3.2 0.00 0.00 0.00 55 1014.0
20260508200743 18 283 3.2 3.2 0.00 0.00 0.00 53 1013.9
20260508200240 18 278 1.6 3.2 0.00 0.00 0.00 54 1013.9
20260508195736 18 286 1.6 3.2 0.00 0.00 0.00 53 1014.3
20260508195232 18 269 3.2 3.2 0.00 0.00 0.00 52 1014.1
20260508194729 18 265 3.2 3.2 0.00 0.00 0.00 51 1014.2
20260508194226 18 276 1.6 3.2 0.00 0.00 0.00 52 1014.3
20260508193723 18 289 1.6 1.6 0.00 0.00 0.00 52 1014.3
20260508193220 18 267 3.2 4.8 0.00 0.00 0.00 53 1014.5
20260508192716 18 260 4.8 8.0 0.00 0.00 0.00 52 1014.3
20260508192214 18 286 3.2 3.2 0.00 0.00 0.00 53 1014.6
20260508191711 19 264 6.4 8.0 0.00 0.00 0.00 51 1014.3
20260508191208 19 272 3.2 3.2 0.00 0.00 0.00 53 1014.6
20260508190705 20 276 4.8 4.8 0.00 0.00 0.00 53 1014.7
20260508190201 20 268 3.2 4.8 0.00 0.00 0.00 51 1014.7
20260508185658 20 257 0.0 1.6 0.00 0.00 0.00 53 1014.7
20260508185155 20 279 3.2 4.8 0.00 0.00 0.00 55 1014.8
20260508184652 19 305 4.8 8.0 0.00 0.00 0.00 54 1014.8
20260508184150 18 243 8.0 11.3 0.00 0.00 0.00 53 1015.1
20260508183646 19 295 8.0 11.3 0.00 0.00 0.00 52 1015.2
20260508183142 19 286 8.0 9.7 0.00 0.00 0.00 52 1015.2
20260508182638 19 272 6.4 8.0 0.00 0.00 0.00 55 1015.4
20260508182135 19 290 6.4 9.7 0.00 0.00 0.00 52 1015.4
20260508181630 18 287 6.4 8.0 0.00 0.00 0.00 55 1015.4
20260508181128 18 299 11.3 12.9 0.00 0.00 0.00 54 1015.2
20260508180625 18 271 6.4 9.7 0.00 0.00 0.00 54 1015.7
20260508180122 18 264 4.8 4.8 0.00 0.00 0.00 55 1015.4
20260508175618 18 278 4.8 4.8 0.00 0.00 0.00 55 1015.8
20260508175115 18 262 6.4 8.0 0.00 0.00 0.00 53 1015.9
20260508174612 18 303 3.2 3.2 0.00 0.00 0.00 56 1015.9
20260508174109 18 240 6.4 8.0 0.00 0.00 0.00 56 1016.0
20260508173606 18 272 4.8 8.0 0.00 0.00 0.00 54 1015.9
20260508173102 18 274 4.8 4.8 0.00 0.00 0.00 54 1016.2
20260508172600 18 270 1.6 1.6 0.00 0.00 0.00 56 1016.1
20260508172056 18 266 11.3 14.5 0.00 0.00 0.00 54 1016.3
20260508171552 18 270 4.8 4.8 0.00 0.00 0.00 55 1016.4
20260508171049 18 280 3.2 3.2 0.00 0.00 0.00 54 1016.2
20260508170546 18 255 9.7 12.9 0.00 0.00 0.00 54 1016.6
20260508170044 18 248 4.8 8.0 0.00 0.00 0.00 53 1016.4
20260508165541 18 263 4.8 8.0 0.00 0.00 0.00 54 1016.7
20260508165038 18 248 8.0 9.7 0.00 0.00 0.00 53 1016.6
20260508164534 18 253 3.2 3.2 0.00 0.00 0.00 54 1016.9
20260508164031 18 248 4.8 8.0 0.00 0.00 0.00 54 1016.9
20260508163528 18 292 3.2 3.2 0.00 0.00 0.00 54 1017.0
20260508163025 18 273 3.2 3.2 0.00 0.00 0.00 55 1016.9
20260508162522 18 274 4.8 4.8 0.00 0.00 0.00 56 1017.1
20260508162019 18 252 6.4 8.0 0.00 0.00 0.00 54 1017.1
20260508161516 18 262 8.0 9.7 0.00 0.00 0.00 54 1016.9
20260508161013 18 286 6.4 9.7 0.00 0.00 0.00 56 1016.8
20260508160512 18 272 4.8 4.8 0.00 0.00 0.00 56 1017.1
20260508160008 18 270 3.2 3.2 0.00 0.00 0.00 55 1017.1
20260508155505 18 275 4.8 4.8 0.00 0.00 0.00 55 1017.2
20260508155002 18 256 3.2 3.2 0.00 0.00 0.00 54 1017.2
20260508154459 17 266 3.2 3.2 0.00 0.00 0.00 55 1017.4
20260508153955 17 287 14.5 20.9 0.00 0.00 0.00 55 1017.2
20260508153452 17 261 6.4 8.0 0.00 0.00 0.00 56 1017.4
20260508152949 17 288 11.3 16.1 0.00 0.00 0.00 57 1017.5
20260508152446 17 273 4.8 4.8 0.00 0.00 0.00 57 1017.5
20260508151942 16 258 6.4 9.7 0.00 0.00 0.00 58 1017.4
20260508151439 16 264 1.6 3.2 0.00 0.00 0.00 60 1017.5
20260508150935 16 270 6.4 8.0 0.00 0.00 0.00 61 1017.6
20260508150432 16 257 3.2 4.8 0.00 0.00 0.00 61 1017.7
20260508145928 16 273 3.2 3.2 0.00 0.00 0.00 60 1017.6
20260508145425 16 267 3.2 3.2 0.00 0.00 0.00 61 1017.7
20260508144921 16 275 1.6 3.2 0.00 0.00 0.00 61 1017.6
20260508144419 16 307 0.0 0.0 0.00 0.00 0.00 62 1017.8
20260508143916 15 283 3.2 4.8 0.00 0.00 0.00 61 1017.8
20260508143414 15 285 1.6 3.2 0.00 0.00 0.00 61 1017.8
20260508142910 15 246 4.8 4.8 0.00 0.00 0.00 62 1017.7
20260508142407 15 283 1.6 1.6 0.00 0.00 0.00 63 1017.9
20260508141903 14 268 4.8 4.8 0.00 0.00 0.00 63 1018.0
20260508141400 14 269 3.2 4.8 0.00 0.00 0.00 65 1017.9
20260508140858 13 264 4.8 4.8 0.00 0.00 0.00 64 1018.2
20260508140355 13 283 4.8 8.0 0.00 0.00 0.00 63 1018.0
20260508135850 13 269 3.2 3.2 0.00 0.00 0.00 64 1018.1
20260508135347 13 265 1.6 1.6 0.00 0.00 0.00 63 1018.1
20260508134843 13 292 0.0 0.0 0.00 0.00 0.00 65 1018.4
20260508134340 13 262 4.8 4.8 0.00 0.00 0.00 65 1018.2
20260508133837 13 276 8.0 9.7 0.00 0.00 0.00 63 1018.1
20260508133335 13 288 8.0 9.7 0.00 0.00 0.00 64 1018.1
20260508132831 13 260 1.6 3.2 0.00 0.00 0.00 66 1018.1
20260508132329 12 272 3.2 3.2 0.00 0.00 0.00 65 1018.3
20260508131826 12 281 3.2 3.2 0.00 0.00 0.00 65 1018.2
20260508131321 12 282 1.6 3.2 0.00 0.00 0.00 65 1018.3
20260508130818 12 277 4.8 8.0 0.00 0.00 0.00 65 1018.0
20260508130315 12 278 1.6 3.2 0.00 0.00 0.00 66 1018.1
20260508125811 12 264 1.6 3.2 0.00 0.00 0.00 68 1018.0
20260508125308 12 284 3.2 4.8 0.00 0.00 0.00 67 1018.1
20260508124806 12 283 3.2 3.2 0.00 0.00 0.00 67 1018.1
20260508124302 11 278 1.6 1.6 0.00 0.00 0.00 68 1018.0
20260508123801 11 296 4.8 4.8 0.00 0.00 0.00 69 1018.0
20260508123258 11 281 1.6 1.6 0.00 0.00 0.00 71 1018.1
20260508122754 11 262 1.6 3.2 0.00 0.00 0.00 69 1017.9
20260508122252 11 276 3.2 3.2 0.00 0.00 0.00 71 1018.2
20260508121749 10 288 1.6 1.6 0.00 0.00 0.00 71 1018.0
20260508121248 10 293 1.6 1.6 0.00 0.00 0.00 71 1018.2
20260508120744 10 279 1.6 3.2 0.00 0.00 0.00 71 1017.8
20260508120243 10 300 1.6 1.6 0.00 0.00 0.00 72 1018.1
20260508115739 10 306 1.6 1.6 0.00 0.00 0.00 73 1018.2
20260508115237 10 292 1.6 1.6 0.00 0.00 0.00 74 1018.0
20260508114733 9 301 0.0 0.0 0.00 0.00 0.00 74 1018.0
20260508114230 9 304 1.6 1.6 0.00 0.00 0.00 76 1018.0
20260508113726 9 310 0.0 0.0 0.00 0.00 0.00 78 1017.9
20260508113225 9 302 1.6 1.6 0.00 0.00 0.00 77 1017.7
20260508112721 8 310 0.0 0.0 0.00 0.00 0.00 76 1017.9
20260508112218 8 308 0.0 0.0 0.00 0.00 0.00 76 1017.7
20260508111715 8 311 0.0 0.0 0.00 0.00 0.00 77 1017.6
20260508111212 8 308 0.0 0.0 0.00 0.00 0.00 76 1017.6
20260508110709 8 299 0.0 0.0 0.00 0.00 0.00 76 1017.7
20260508110206 8 304 0.0 0.0 0.00 0.00 0.00 76 1017.6
20260508105706 8 304 0.0 0.0 0.00 0.00 0.00 75 1017.4
20260508105203 8 299 0.0 0.0 0.00 0.00 0.00 76 1017.3
20260508104701 8 303 0.0 1.6 0.00 0.00 0.00 75 1017.5
20260508104157 8 299 0.0 0.0 0.00 0.00 0.00 75 1017.5
20260508103654 8 298 0.0 0.0 0.00 0.00 0.00 75 1017.5
20260508103152 8 300 0.0 0.0 0.00 0.00 0.00 75 1017.4
20260508102649 8 293 0.0 0.0 0.00 0.00 0.00 76 1017.2
20260508102147 8 301 1.6 1.6 0.00 0.00 0.00 76 1017.3
20260508101643 8 304 0.0 1.6 0.00 0.00 0.00 76 1017.6
20260508101141 8 304 0.0 0.0 0.00 0.00 0.00 76 1017.5
20260508100638 8 310 0.0 0.0 0.00 0.00 0.00 77 1017.6
20260508100137 8 311 0.0 0.0 0.00 0.00 0.00 77 1017.5
20260508095633 8 314 0.0 0.0 0.00 0.00 0.00 78 1017.5
20260508095130 8 317 0.0 0.0 0.00 0.00 0.00 78 1017.4
20260508094627 7 320 0.0 0.0 0.00 0.00 0.00 78 1017.4
20260508094123 7 321 0.0 0.0 0.00 0.00 0.00 80 1017.5
20260508093621 7 321 0.0 0.0 0.00 0.00 0.00 83 1017.8
20260508093119 7 321 0.0 0.0 0.00 0.00 0.00 83 1017.5
20260508092615 7 321 0.0 0.0 0.00 0.00 0.00 83 1017.7
20260508092114 7 320 0.0 0.0 0.00 0.00 0.00 82 1017.6
20260508091611 7 321 0.0 0.0 0.00 0.00 0.00 83 1017.7
20260508091108 7 321 0.0 0.0 0.00 0.00 0.00 82 1017.5
20260508090606 7 320 0.0 0.0 0.00 0.00 0.00 82 1017.6
20260508085559 7 319 0.0 0.0 0.00 0.00 0.00 81 1017.6
20260508085056 7 318 0.0 0.0 0.00 0.00 0.00 82 1017.6
20260508084553 7 321 0.0 0.0 0.00 0.00 0.00 84 1017.7
20260508084050 6 321 0.0 0.0 0.00 0.00 0.00 84 1017.6
20260508083547 6 321 0.0 0.0 0.00 0.00 0.00 85 1017.7
20260508083044 6 321 0.0 0.0 0.00 0.00 0.00 85 1017.7
20260508082540 6 321 0.0 0.0 0.00 0.00 0.00 84 1017.8
20260508082037 6 321 0.0 0.0 0.00 0.00 0.00 84 1017.6
20260508081535 7 321 0.0 0.0 0.00 0.00 0.00 83 1017.8
20260508081030 7 321 0.0 0.0 0.00 0.00 0.00 83 1017.8
20260508080529 7 316 0.0 0.0 0.00 0.00 0.00 82 1017.4
20260508080026 7 313 0.0 0.0 0.00 0.00 0.00 82 1017.4
20260508075522 7 313 0.0 0.0 0.00 0.00 0.00 80 1017.5
20260508075020 7 312 0.0 1.6 0.00 0.00 0.00 80 1017.7
20260508074517 7 314 0.0 1.6 0.00 0.00 0.00 81 1017.4
20260508074014 7 313 0.0 0.0 0.00 0.00 0.00 81 1017.6
20260508073511 7 314 0.0 0.0 0.00 0.00 0.00 80 1017.4
20260508073009 8 313 0.0 0.0 0.00 0.00 0.00 79 1017.6
20260508072504 8 310 0.0 0.0 0.00 0.00 0.00 77 1017.6
20260508072002 8 305 0.0 0.0 0.00 0.00 0.00 76 1017.7
20260508071500 8 302 0.0 0.0 0.00 0.00 0.00 75 1017.7
20260508070957 8 288 1.6 3.2 0.00 0.00 0.00 75 1017.9
20260508070454 8 282 1.6 3.2 0.00 0.00 0.00 74 1017.6
20260508065952 8 282 1.6 3.2 0.00 0.00 0.00 74 1017.9
20260508065450 8 295 0.0 1.6 0.00 0.00 0.00 74 1017.7
20260508064948 8 292 1.6 1.6 0.00 0.00 0.00 73 1017.7
20260508064445 8 293 1.6 1.6 0.00 0.00 0.00 73 1018.0
20260508063943 8 301 0.0 0.0 0.00 0.00 0.00 74 1018.0
20260508063440 8 294 0.0 1.6 0.00 0.00 0.00 73 1018.2
20260508062937 8 289 1.6 1.6 0.00 0.00 0.00 72 1018.1
20260508062430 9 292 0.0 1.6 0.00 0.00 0.00 72 1018.0
20260508061927 9 286 1.6 3.2 0.00 0.00 0.00 72 1018.1
20260508061424 9 292 1.6 1.6 0.00 0.00 0.00 72 1018.1
20260508060920 9 282 1.6 3.2 0.00 0.00 0.00 71 1018.0
20260508060418 9 295 1.6 1.6 0.00 0.00 0.00 71 1018.0
20260508055913 9 298 1.6 1.6 0.00 0.00 0.00 72 1018.1
20260508055410 9 293 0.0 1.6 0.00 0.00 0.00 72 1018.2
20260508054907 8 294 1.6 1.6 0.00 0.00 0.00 73 1018.1
20260508054404 8 296 1.6 3.2 0.00 0.00 0.00 73 1017.9
20260508053901 9 298 1.6 1.6 0.00 0.00 0.00 73 1018.3
20260508053358 9 298 0.0 1.6 0.00 0.00 0.00 73 1018.3
20260508052856 9 294 1.6 1.6 0.00 0.00 0.00 72 1018.2
20260508052353 9 298 1.6 1.6 0.00 0.00 0.00 72 1018.2
20260508051849 9 301 1.6 1.6 0.00 0.00 0.00 72 1018.2
20260508051345 9 309 0.0 0.0 0.00 0.00 0.00 73 1018.2
20260508050841 8 311 1.6 1.6 0.00 0.00 0.00 73 1018.1
20260508050338 8 312 0.0 1.6 0.00 0.00 0.00 72 1018.4
20260508045834 9 313 1.6 1.6 0.00 0.00 0.00 73 1018.0
20260508045332 9 314 1.6 1.6 0.00 0.00 0.00 71 1018.0
20260508044829 8 318 0.0 1.6 0.00 0.00 0.00 73 1018.2
20260508044325 8 321 1.6 1.6 0.00 0.00 0.00 74 1018.4
20260508043822 8 334 0.0 0.0 0.00 0.00 0.00 74 1018.4
20260508043319 8 334 0.0 0.0 0.00 0.00 0.00 74 1018.1
20260508042816 8 334 0.0 0.0 0.00 0.00 0.00 76 1018.1
20260508042314 8 334 0.0 0.0 0.00 0.00 0.00 75 1018.0
20260508041810 8 334 0.0 0.0 0.00 0.00 0.00 75 1018.3
20260508041306 8 334 0.0 0.0 0.00 0.00 0.00 75 1018.0
20260508040803 8 334 0.0 1.6 0.00 0.00 0.00 74 1018.2
20260508040301 9 334 0.0 0.0 0.00 0.00 0.00 76 1018.1
20260508035758 9 334 0.0 0.0 0.00 0.00 0.00 72 1018.0
20260508035255 9 335 0.0 1.6 0.00 0.00 0.00 73 1018.2
20260508034751 9 334 1.6 1.6 0.00 0.00 0.00 71 1017.9
20260508034249 9 332 0.0 0.0 0.00 0.00 0.00 72 1018.0
20260508033746 9 331 0.0 0.0 0.00 0.00 0.00 72 1017.9
20260508033244 10 332 1.6 1.6 0.00 0.00 0.00 69 1018.1
20260508032741 10 322 0.0 0.0 0.00 0.00 0.00 72 1018.0
20260508032238 10 322 0.0 0.0 0.00 0.00 0.00 71 1018.0
20260508031735 10 318 0.0 0.0 0.00 0.00 0.00 69 1018.2
20260508031231 10 315 0.0 0.0 0.00 0.00 0.00 68 1018.1
20260508030728 10 310 1.6 1.6 0.00 0.00 0.00 67 1018.1
20260508030225 10 320 0.0 0.0 0.00 0.00 0.00 68 1018.0
20260508025722 11 321 0.0 1.6 0.00 0.00 0.00 68 1017.9
20260508025219 11 320 0.0 1.6 0.00 0.00 0.00 63 1017.8
20260508024714 10 320 0.0 0.0 0.00 0.00 0.00 63 1017.8
20260508024212 10 325 0.0 0.0 0.00 0.00 0.00 68 1017.9
20260508023708 10 325 0.0 0.0 0.00 0.00 0.00 69 1017.8
20260508023206 10 325 0.0 0.0 0.00 0.00 0.00 69 1017.8
20260508022701 10 326 0.0 0.0 0.00 0.00 0.00 70 1018.0
20260508022159 10 325 0.0 0.0 0.00 0.00 0.00 69 1017.7
20260508021655 10 324 0.0 0.0 0.00 0.00 0.00 68 1018.0
20260508021150 10 324 0.0 0.0 0.00 0.00 0.00 69 1017.7
20260508020648 10 324 0.0 0.0 0.00 0.00 0.00 67 1017.7
20260508020145 10 324 0.0 0.0 0.00 0.00 0.00 67 1017.7
20260508015643 10 322 0.0 0.0 0.00 0.00 0.00 67 1017.6
20260508015140 10 322 0.0 0.0 0.00 0.00 0.00 69 1018.0
20260508014636 10 322 0.0 0.0 0.00 0.00 0.00 69 1017.9
20260508014132 10 322 0.0 0.0 0.00 0.00 0.00 67 1017.8
20260508013629 10 322 0.0 0.0 0.00 0.00 0.00 67 1017.9
20260508013126 10 322 0.0 0.0 0.00 0.00 0.00 67 1017.8
20260508012623 10 321 0.0 0.0 0.00 0.00 0.00 66 1017.9
20260508012120 10 321 0.0 0.0 0.00 0.00 0.00 69 1017.9
20260508011619 10 321 0.0 0.0 0.00 0.00 0.00 69 1017.9
20260508011115 10 320 0.0 0.0 0.00 0.00 0.00 68 1017.8
20260508010612 11 320 0.0 0.0 0.00 0.00 0.00 66 1017.6
20260508010110 11 317 0.0 0.0 0.00 0.00 0.00 65 1017.9
20260508005606 11 317 0.0 0.0 0.00 0.00 0.00 64 1017.8
20260508005103 11 317 0.0 0.0 0.00 0.00 0.00 61 1018.0
20260508004559 11 317 0.0 0.0 0.00 0.00 0.00 64 1018.0
20260508004056 11 317 0.0 0.0 0.00 0.00 0.00 63 1017.9
20260508003552 11 316 0.0 0.0 0.00 0.00 0.00 63 1018.0
20260508003050 11 317 0.0 0.0 0.00 0.00 0.00 65 1017.8
20260508002546 12 316 0.0 0.0 0.00 0.00 0.00 65 1017.6
20260508002044 12 315 0.0 0.0 0.00 0.00 0.00 61 1017.5
20260508001539 12 312 0.0 0.0 0.00 0.00 0.00 63 1017.5
20260508001035 12 304 0.0 1.6 0.00 0.00 0.00 53 1017.6
20260508000531 12 316 0.0 0.0 0.00 0.00 0.00 62 1017.5
20260508000029 13 315 1.6 1.6 0.00 0.00 0.00 58 1017.4
20260507235525 13 298 1.6 1.6 0.00 0.00 0.00 50 1017.5
20260507235023 13 288 1.6 1.6 0.00 0.00 0.00 47 1017.5
20260507234519 14 293 1.6 1.6 0.00 0.00 0.00 48 1017.5
20260507234016 14 294 1.6 1.6 0.00 0.00 0.00 49 1017.6
20260507233513 14 292 1.6 1.6 0.00 0.00 0.00 48 1017.4
20260507233011 14 311 1.6 1.6 0.00 0.00 0.00 47 1017.4
20260507232507 14 299 0.0 1.6 0.00 0.00 0.00 49 1017.4
20260507232005 14 298 1.6 1.6 0.00 0.00 0.00 46 1017.4
20260507231501 15 299 0.0 1.6 0.00 0.00 0.00 46 1017.5
20260507230958 15 320 0.0 1.6 0.00 0.00 0.00 49 1017.4
20260507230455 15 298 0.0 1.6 0.00 0.00 0.00 46 1017.5
20260507225950 15 293 1.6 1.6 0.00 0.00 0.00 49 1017.4
20260507225447 15 293 1.6 1.6 0.00 0.00 0.00 48 1017.6
20260507224943 15 289 1.6 1.6 0.00 0.00 0.00 46 1017.4
20260507224439 15 299 0.0 0.0 0.00 0.00 0.00 46 1017.4
20260507223936 15 276 1.6 1.6 0.00 0.00 0.00 46 1017.4
20260507223432 15 298 1.6 1.6 0.00 0.00 0.00 50 1017.3
20260507222929 15 292 1.6 1.6 0.00 0.00 0.00 48 1017.2
20260507222426 15 289 0.0 0.0 0.00 0.00 0.00 47 1017.4
20260507221922 15 250 4.8 4.8 0.00 0.00 0.00 46 1017.5
20260507221419 15 276 1.6 3.2 0.00 0.00 0.00 47 1017.8
20260507220914 15 312 1.6 1.6 0.00 0.00 0.00 47 1017.7